Location: Campillo
(40.8621°N, 4.2488°W)
Time: 20:03:15
(UTC+00:00)

Cosmos 1536 - Visible Passes

Search period start: 20 September 2021 00:00
Search period end: 30 September 2021 00:00
Orbit: 539 x 558 km, 82.5° (Epoch: 20 September)

Date Brightness Start Highest point End Pass type
(mag) Time Alt. Az. Time Alt. Az. Time Alt. Az.
20 Sep 5.6 04:27:01 10° NNE 04:30:06 21° ENE 04:33:10 10° SE visible
21 Sep 5.4 04:22:13 10° NNE 04:25:25 23° ENE 04:28:36 10° SE visible
22 Sep 5.2 04:17:25 10° NNE 04:20:44 25° ENE 04:24:01 10° SE visible
23 Sep 5.0 04:12:38 10° NNE 04:16:03 27° ENE 04:19:25 10° SE visible
24 Sep 4.8 04:07:51 10° NNE 04:11:21 29° ENE 04:14:49 10° SE visible
25 Sep 4.6 04:03:04 10° NNE 04:06:39 31° ENE 04:10:12 10° SE visible
25 Sep 4.3 05:40:11 10° NW 05:42:46 17° W 05:45:21 10° SW visible
26 Sep 4.5 03:58:18 10° N 04:01:57 34° ENE 04:05:35 10° SE visible
26 Sep 4.4 05:35:38 10° NW 05:38:01 16° W 05:40:25 10° SW visible
27 Sep 4.3 03:53:33 10° N 03:57:15 37° ENE 04:00:57 10° SSE visible
27 Sep 4.4 05:31:06 10° NW 05:33:17 14° W 05:35:28 10° WSW visible
28 Sep 4.0 03:48:47 10° N 03:52:33 40° ENE 03:56:18 10° SSE visible
28 Sep 4.5 05:26:37 10° WNW 05:28:32 13° W 05:30:28 10° WSW visible
29 Sep 4.0 03:44:02 10° N 03:47:20 41° NE 03:47:20 41° NE visible
29 Sep 4.8 05:22:10 10° WNW 05:22:50 11° WNW 05:22:50 11° WNW visible
